[[{"header":{"parameterUnit":"m.s-1","parameterCategory":2,"la1":30.2991,"la2":30.254,"lo1":-89.0895,"lo2":-89.0444,"dy":0.0017,"dx":0.0017,"nx":28,"ny":28,"refTime":"2024-07-24T09:00:00:Z","depth":"0","parameterNumber":2,"parameterNumberName":"U-component_of_CURRENTS"},"data":[0,0,0,0,0,0,0,0,0,0,0,0,0,0,0,0,0,0,0,0,0,0,0,0,0,0,0,0,0,0,0,0,0,0,0,0,0,0,0,0,0,0,0,0,0,0,0,0,0,0,0,0,0,0,0,0,0,0,0.2583,0.2584,0,0.2623,0.2623,0.2623,0.2579,0.2578,0.2577,0.2576,0.2675,0.2679,0.2683,0,0,0,0,0,0,0,0,0,0,0,0,0,0.2643,0.2641,0.2583,0.2584,0.2585,0.2623,0.2623,0.2623,0.258,0.2578,0.2576,0.2575,0.2674,0.2679,0.2683,0,0,0,0,0,0,0,0,0,0,0,0,0,0.2639,0.264,0.2583,0.257,0.257,0.2623,0.2623,0.2623,0.258,0.2578,0.2576,0.2574,0.2673,0.2678,0.2684,0.276,0,0,0.2702,0.2704,0,0,0,0,0,0,0,0,0.2639,0.2636,0.2571,0.2571,0.2571,0.2598,0.2681,0.2673,0.258,0.2572,0.2576,0.2573,0.2659,0.2666,0.2671,0.2764,0.2769,0.2702,0.2706,0.2708,0.271,0,0,0,0,0,0,0,0.2639,0.2636,0.2595,0.2572,0.2572,0.2623,0.2618,0.268,0.2624,0.2573,0.257,0.2582,0.2658,0.2666,0.2674,0.277,0.2702,0.2707,0.2711,0.2713,0.3029,0.3033,0,0,0,0,0,0,0.2635,0.2635,0.2594,0.2596,0.2605,0.2623,0.2618,0.2588,0.2622,0.2626,0.2584,0.258,0.2657,0.2667,0.2677,0.288,0.2708,0.2714,0.2717,0.3024,0.303,0.3035,0,0,0,0,0,0,0.2635,0.2629,0.2592,0.2623,0.2622,0.2623,0.2591,0.259,0.2605,0.2631,0.2634,0.2601,0.2656,0.2669,0.2773,0.2879,0.2716,0.2722,0.3018,0.3026,0.3033,0.3216,0,0,0,0,0,0,0.2636,0.2628,0.2613,0.262,0.262,0.2664,0.2593,0.2592,0.2616,0.2612,0.2648,0.2653,0.2655,0.2765,0.2779,0.2884,0.2726,0.3012,0.3022,0.303,0.3203,0.3228,0.325,0,0,0,0,0,0.2637,0.2629,0.2611,0.2608,0.2594,0.2668,0.2675,0.2667,0.2619,0.2663,0.2684,0.2652,0.2833,0.2774,0.2789,0.2899,0.3008,0.3019,0.303,0.3193,0.3223,0.3249,0,0,0,0,0,0,0.2661,0.2624,0.2605,0.2586,0.2643,0.2663,0.2689,0.2683,0.2729,0.2717,0.2716,0.2729,0.2859,0.2857,0.2791,0.3017,0.2916,0.293,0.3035,0.3064,0.3086,0.312,0.2731,0,0,0,0,0,0.2657,0.2634,0.2646,0.265,0.2664,0.2678,0.2702,0.2711,0.2749,0.2762,0.2799,0.2842,0.2919,0.2968,0.3027,0.3156,0.314,0.3236,0.3259,0.3279,0.3319,0.3359,0.3388,0.3071,0.3071,0.3071,0,0,0.2675,0.2653,0.2643,0.2655,0.2676,0.2772,0.2687,0.2745,0.286,0.2774,0.2926,0.2926,0.2969,0.3112,0.3171,0.3124,0.3367,0.3293,0.3309,0.3339,0.3373,0.3403,0.3431,0.3079,0.3077,0.3076,0,0,0.2753,0.2674,0.2711,0.2763,0.2814,0.2836,0.2862,0.2911,0.2956,0.3094,0.3065,0.3137,0.3249,0.3315,0.3356,0.3549,0.348,0.3553,0.3712,0.3751,0.3777,0.3799,0.3835,0.3859,0.3573,0.3573,0.3573,0,0.2783,0.282,0.2754,0.2842,0.2903,0.2878,0.2999,0.3068,0.3165,0.3213,0.3175,0.3327,0.3366,0.3536,0.3612,0.3608,0.3593,0.3598,0.3779,0.3801,0.3821,0.3851,0.3875,0.3583,0.3582,0.3581,0.358,0,0.2923,0.297,0.3006,0.3093,0.3155,0.325,0.3328,0.3404,0.3425,0.3479,0.3621,0.3659,0.3731,0.3773,0.3766,0.3938,0.3871,0.3791,0.37,0.3863,0.3886,0.3908,0.3598,0.3594,0.3591,0.3588,0,0,0.2951,0.3075,0.3094,0.3177,0.3289,0.3353,0.353,0.3665,0.3743,0.3843,0.3954,0.4111,0.4047,0.4093,0.4075,0.4143,0.4289,0.4043,0.404,0.4067,0.4365,0.4268,0.428,0.421,0.4215,0.4219,0.4328,0,0.3098,0.3289,0.3317,0.3533,0.364,0.3666,0.3819,0.3928,0.399,0.4091,0.4139,0.4229,0.4198,0.42,0.4281,0.4258,0.4352,0.4267,0.4215,0.4216,0.4098,0.4305,0.4057,0.4129,0.4349,0.4352,0.4355,0,0.3251,0.3347,0.3565,0.3722,0.3761,0.3879,0.4018,0.4156,0.4276,0.4312,0.4386,0.4375,0.4513,0.4426,0.4543,0.4469,0.4471,0.4459,0.446,0.4324,0.416,0.4001,0.4158,0.4021,0.4387,0.4384,0.4382,0,0.3315,0.3526,0.3686,0.3755,0.3927,0.4004,0.4083,0.4207,0.4291,0.4422,0.4439,0.4569,0.4585,0.464,0.4628,0.4581,0.4708,0.4619,0.4559,0.455,0.4314,0.4276,0.4321,0.4749,0.4749,0.4749,0.4748,0,0.3467,0.3597,0.3715,0.3806,0.3951,0.4047,0.4182,0.4268,0.4372,0.4437,0.4522,0.4567,0.4629,0.4676,0.469,0.4694,0.4758,0.4655,0.4599,0.4372,0.434,0.4183,0.4135,0.4753,0.4752,0.4751,0.475,0,0.3549,0.364,0.3808,0.3958,0.3992,0.4085,0.4197,0.4275,0.4369,0.4445,0.4477,0.458,0.464,0.47,0.4771,0.4736,0.4624,0.4756,0.4492,0.4406,0.4203,0.4173,0.4074,0.3974,0.4729,0.4727,0.4726,0,0.3625,0.3723,0.3861,0.3914,0.398,0.4095,0.4152,0.4264,0.4317,0.4426,0.4444,0.4542,0.459,0.4684,0.4659,0.4705,0.4571,0.4478,0.4382,0.4229,0.4156,0.4016,0.393,0.4146,0.414,0.4135,0.4132,0,0.3737,0.3763,0.386,0.395,0.4016,0.4087,0.4161,0.4188,0.4279,0.4321,0.4374,0.4432,0.4515,0.4434,0.4474,0.4458,0.4231,0.4382,0.4283,0.3797,0.3588,0.3446,0.4044,0.4089,0.4094,0.4097,0.4099,0.4101,0.377,0.3832,0.3907,0.3979,0.4034,0.4039,0.4032,0.4072,0.4094,0.4073,0.4224,0.421,0.4175,0.4205,0.4173,0.3907,0.3994,0.3744,0.3754,0.3653,0.3463,0.3995,0.3929,0.3932,0.3935,0.3937,0.394,0,0.3809,0.3854,0.3926,0.3968,0.3963,0.4003,0.3998,0.3923,0.385,0.3888,0.3911,0.3795,0.3684,0.3628,0.3411,0.3277,0.3147,0.3173,0.2913,0.2889,0.3398,0.3277,0.2992,0.2992,0.2992,0.2992,0.2992,0.2992,0.3828,0.3881,0.3894,0.3864,0.3869,0.3773,0.3726,0.3602,0.3571,0.3379,0.327,0.3291,0.3225,0.3053,0.2813,0.2749,0.2577,0.2433,0.2533,0.2865,0.2918,0.2967,0.2843,0.2471,0.247,0.1838,0.1833,0.1829]},{"header":{"parameterUnit":"m.s-1","parameterCategory":2,"la1":30.2991,"la2":30.254,"lo1":-89.0895,"lo2":-89.0444,"dy":0.0017,"dx":0.0017,"nx":28,"ny":28,"refTime":"2024-07-24T09:00:00:Z","depth":"0","parameterNumber":3,"parameterNumberName":"V-component_of_CURRENTS"},"data":[0,0,0,0,0,0,0,0,0,0,0,0,0,0,0,0,0,0,0,0,0,0,0,0,0,0,0,0,0,0,0,0,0,0,0,0,0,0,0,0,0,0,0,0,0,0,0,0,0,0,0,0,0,0,0,0,0,0,-0.0255,-0.0256,0,-0.028,-0.0281,-0.0281,-0.031,-0.031,-0.0311,-0.0311,-0.0305,-0.0305,-0.0304,0,0,0,0,0,0,0,0,0,0,0,0,0,-0.0212,-0.0213,-0.0255,-0.0256,-0.0256,-0.028,-0.0281,-0.0281,-0.031,-0.031,-0.0311,-0.0311,-0.0306,-0.0305,-0.0304,0,0,0,0,0,0,0,0,0,0,0,0,0,-0.0234,-0.0213,-0.0255,-0.0273,-0.0274,-0.028,-0.0281,-0.0281,-0.031,-0.031,-0.0311,-0.0312,-0.0306,-0.0305,-0.0304,-0.0289,0,0,-0.0302,-0.0302,0,0,0,0,0,0,0,0,-0.0233,-0.0236,-0.027,-0.0271,-0.0273,-0.0292,-0.0263,-0.0282,-0.031,-0.0297,-0.0311,-0.0312,-0.0297,-0.0297,-0.0302,-0.0289,-0.0288,-0.0302,-0.0302,-0.0301,-0.0301,0,0,0,0,0,0,0,-0.0231,-0.0235,-0.0266,-0.027,-0.0272,-0.0272,-0.0276,-0.0267,-0.0294,-0.0298,-0.03,-0.0302,-0.0298,-0.0303,-0.0302,-0.0288,-0.0302,-0.0301,-0.0301,-0.0301,-0.0178,-0.0175,0,0,0,0,0,0,-0.0227,-0.0233,-0.0265,-0.0267,-0.0253,-0.0272,-0.0277,-0.0286,-0.0295,-0.0297,-0.0301,-0.0303,-0.0304,-0.0303,-0.0302,-0.023,-0.0301,-0.0301,-0.03,-0.0181,-0.0177,-0.0174,0,0,0,0,0,0,-0.0226,-0.023,-0.0264,-0.0249,-0.0254,-0.0272,-0.0283,-0.0286,-0.0288,-0.0297,-0.0299,-0.0299,-0.0304,-0.0303,-0.0284,-0.0232,-0.03,-0.03,-0.0184,-0.018,-0.0176,-0.012,0,0,0,0,0,0,-0.0225,-0.023,-0.023,-0.0249,-0.0254,-0.0256,-0.0282,-0.0286,-0.0288,-0.029,-0.0295,-0.0296,-0.0305,-0.0285,-0.0284,-0.0232,-0.0299,-0.0188,-0.0182,-0.0177,-0.0125,-0.0114,-0.0105,0,0,0,0,0,-0.0223,-0.0216,-0.0231,-0.0234,-0.0257,-0.0255,-0.0257,-0.0272,-0.0287,-0.0278,-0.0283,-0.0295,-0.0249,-0.0284,-0.0282,-0.0229,-0.019,-0.0184,-0.0177,-0.013,-0.0116,-0.0105,0,0,0,0,0,0,-0.0198,-0.0219,-0.0235,-0.0236,-0.0241,-0.0259,-0.0252,-0.0266,-0.0265,-0.0264,-0.028,-0.028,-0.0237,-0.0238,-0.0276,-0.0172,-0.0212,-0.0205,-0.0176,-0.0164,-0.0154,-0.0121,-0.0298,0,0,0,0,0,-0.0194,-0.0193,-0.0213,-0.0212,-0.0214,-0.0233,-0.0234,-0.0242,-0.0246,-0.0248,-0.0252,-0.0238,-0.0208,-0.0195,-0.0177,-0.0134,-0.0135,-0.0088,-0.0078,-0.007,-0.0038,-0.0005,0.0011,-0.0153,-0.0153,-0.0154,0,0,-0.0185,-0.0194,-0.0195,-0.0205,-0.0214,-0.0199,-0.0235,-0.0226,-0.0202,-0.0244,-0.0212,-0.021,-0.019,-0.0139,-0.0117,-0.0135,-0.0026,-0.0062,-0.0055,-0.0027,0.0004,0.0019,0.0033,-0.0149,-0.015,-0.0151,0,0,-0.016,-0.0174,-0.0166,-0.0163,-0.0166,-0.0167,-0.0162,-0.0173,-0.0165,-0.014,-0.0149,-0.0112,-0.0093,-0.0053,-0.0032,0.0051,0.0022,0.0057,0.0137,0.0168,0.0182,0.0193,0.0189,0.02,0.0067,0.0067,0.0067,0,-0.0151,-0.014,-0.016,-0.0145,-0.0126,-0.0149,-0.012,-0.0112,-0.0111,-0.0079,-0.0117,-0.0036,-0.0037,0.0063,0.0088,0.0077,0.0067,0.0079,0.0179,0.0191,0.0202,0.0195,0.0207,0.007,0.007,0.007,0.0069,0,-0.0119,-0.0105,-0.0093,-0.0079,-0.0061,-0.0035,-0.0026,0.0001,0.0004,0.0019,0.0098,0.0099,0.0156,0.0165,0.0145,0.0246,0.0202,0.0178,0.0139,0.0222,0.0209,0.022,0.0075,0.0074,0.0073,0.0072,0,0,-0.0115,-0.0078,-0.0074,-0.0041,-0.0017,0.0008,0.0064,0.0123,0.0181,0.0191,0.0275,0.0322,0.0321,0.0348,0.0339,0.0367,0.0413,0.0305,0.0305,0.0286,0.0451,0.0397,0.0403,0.0388,0.0391,0.0394,0.04,0,-0.0083,-0.0025,-0.0015,0.0059,0.0096,0.0118,0.0178,0.0233,0.027,0.034,0.0379,0.044,0.0392,0.0418,0.0446,0.0437,0.0449,0.0413,0.0389,0.0389,0.0319,0.0417,0.0414,0.0419,0.041,0.0412,0.0413,0,-0.0058,-0.0012,0.0063,0.0154,0.0172,0.0215,0.0331,0.0379,0.0473,0.0503,0.0575,0.0583,0.0665,0.0582,0.0626,0.0597,0.0535,0.0505,0.0504,0.0452,0.0358,0.0344,0.0439,0.0285,0.0429,0.0428,0.0427,0,-0.0029,0.0046,0.012,0.0146,0.0236,0.0291,0.0343,0.0436,0.0502,0.0606,0.0659,0.074,0.0781,0.0758,0.0703,0.066,0.0715,0.0647,0.0541,0.0533,0.0532,0.0521,0.0472,0.0659,0.0659,0.0659,0.0659,0,0.001,0.0069,0.0142,0.0185,0.0297,0.0334,0.0454,0.0516,0.0611,0.071,0.074,0.083,0.0821,0.0844,0.0765,0.071,0.0768,0.0589,0.0555,0.0548,0.0539,0.0404,0.0328,0.0659,0.0659,0.0659,0.0659,0,0.0034,0.0072,0.0168,0.0274,0.0312,0.039,0.0506,0.0586,0.0662,0.0791,0.0825,0.0918,0.0964,0.0929,0.0904,0.0792,0.0656,0.0681,0.0658,0.0622,0.0358,0.0287,0.0245,0.018,0.0577,0.0576,0.0575,0,0.0055,0.0105,0.0231,0.0287,0.0337,0.0445,0.0518,0.061,0.0691,0.0849,0.0916,0.1,0.1101,0.1057,0.0911,0.0798,0.0644,0.0633,0.0561,0.0378,0.0274,0.0219,0.0163,0.0567,0.0567,0.0566,0.0565,0,0.0113,0.0151,0.0233,0.0339,0.0422,0.0528,0.0633,0.071,0.0824,0.0954,0.1121,0.122,0.1185,0.1124,0.0933,0.0815,0.053,0.061,0.0456,0.0309,0.0221,0.0128,0.0492,0.056,0.056,0.0561,0.0561,0.0561,0.0159,0.0219,0.0307,0.0403,0.0492,0.0599,0.0706,0.0831,0.1,0.1225,0.1276,0.1494,0.1291,0.108,0.0876,0.0464,0.0481,0.031,0.0251,0.022,0.0134,0.0465,0.0467,0.0467,0.0467,0.0467,0.0467,0,0.0221,0.0272,0.0359,0.0479,0.0565,0.0609,0.0775,0.0906,0.1129,0.1378,0.1567,0.163,0.136,0.1037,0.0484,0.0165,0.006,-0.0009,-0.0078,-0.011,0.0219,0.0193,0.0095,0.0095,0.0095,0.0096,0.0096,0.0096,0.0259,0.0338,0.0367,0.0504,0.0588,0.0745,0.0852,0.1071,0.1291,0.1631,0.1833,0.1946,0.1672,0.0691,0.0004,-0.0157,-0.0368,-0.0408,-0.0512,-0.0302,-0.0277,-0.0253,-0.0297,-0.0495,-0.0496,-0.0812,-0.0816,-0.0818]}],[{"header":{"parameterUnit":"m.s-1","parameterCategory":2,"la1":30.2991,"la2":30.254,"lo1":-89.0895,"lo2":-89.0444,"dy":0.0017,"dx":0.0017,"nx":28,"ny":28,"refTime":"2024-07-24T09:00:00:Z","depth":"2","parameterNumber":2,"parameterNumberName":"U-component_of_CURRENTS"},"data":[0,0,0,0,0,0,0,0,0,0,0,0,0,0,0,0,0,0,0,0,0,0,0,0,0,0,0,0,0,0,0,0,0,0,0,0,0,0,0,0,0,0,0,0,0,0,0,0,0,0,0,0,0,0,0,0,0,0,0.1915,0.1916,0,0.1955,0.1955,0.1955,0.1965,0.1965,0.1965,0.1966,0.2102,0.2105,0.2109,0,0,0,0,0,0,0,0,0,0,0,0,0,0.1876,0.1876,0.1915,0.1916,0.1917,0.1955,0.1955,0.1955,0.1965,0.1965,0.1965,0.1966,0.2101,0.2105,0.2109,0,0,0,0,0,0,0,0,0,0,0,0,0,0.1898,0.1876,0.1915,0.193,0.1932,0.1955,0.1955,0.1955,0.1965,0.1965,0.1965,0.1966,0.2099,0.2104,0.211,0.2138,0,0,0.2126,0.2128,0,0,0,0,0,0,0,0,0.1897,0.1899,0.1927,0.1929,0.1931,0.1959,0.1991,0.2023,0.1965,0.1948,0.1966,0.1966,0.2066,0.2074,0.2073,0.2144,0.215,0.2126,0.2129,0.2131,0.2133,0,0,0,0,0,0,0,0.1895,0.1897,0.1927,0.1928,0.193,0.1944,0.1947,0.1997,0.2004,0.1949,0.1951,0.1962,0.2067,0.2068,0.2077,0.2152,0.2126,0.2131,0.2134,0.2136,0.2444,0.2449,0,0,0,0,0,0,0.1897,0.1896,0.1925,0.1928,0.1919,0.1945,0.1948,0.1946,0.2001,0.201,0.1962,0.1963,0.2059,0.2071,0.2082,0.2227,0.2131,0.2136,0.2139,0.2439,0.2445,0.245,0,0,0,0,0,0,0.1896,0.1899,0.1924,0.1917,0.1922,0.1945,0.1944,0.1947,0.1969,0.201,0.202,0.1984,0.2059,0.2075,0.2195,0.2229,0.2139,0.2143,0.2433,0.2441,0.2448,0.2449,0,0,0,0,0,0,0.1894,0.1897,0.1904,0.1917,0.1922,0.1974,0.1944,0.1948,0.1976,0.1978,0.2032,0.2043,0.2061,0.2188,0.2201,0.2234,0.2148,0.2426,0.2436,0.2445,0.2443,0.2456,0.2467,0,0,0,0,0,0.1892,0.1909,0.1903,0.1908,0.1927,0.1977,0.1982,0.1996,0.1977,0.201,0.207,0.2043,0.2257,0.2197,0.221,0.2245,0.2422,0.2434,0.2445,0.2437,0.2453,0.2466,0,0,0,0,0,0,0.1904,0.1912,0.1906,0.1926,0.1964,0.1981,0.2013,0.2008,0.2071,0.208,0.2104,0.2123,0.2228,0.2268,0.22,0.2375,0.2336,0.2351,0.2326,0.2342,0.2353,0.2427,0.2152,0,0,0,0,0,0.1906,0.1913,0.1938,0.1958,0.1981,0.1995,0.2015,0.2025,0.2077,0.21,0.2126,0.2197,0.2282,0.2337,0.2397,0.2501,0.2523,0.2543,0.2555,0.2565,0.2644,0.2661,0.2679,0.2488,0.2487,0.2487,0,0,0.1909,0.1922,0.1922,0.1961,0.1986,0.2031,0.2008,0.2056,0.2113,0.2111,0.2194,0.2224,0.2319,0.2425,0.2479,0.2467,0.2635,0.2579,0.2585,0.2662,0.2674,0.2692,0.2707,0.2495,0.2494,0.2493,0,0,0.1924,0.1944,0.1951,0.2003,0.2054,0.2072,0.2091,0.2118,0.2163,0.2269,0.2266,0.2347,0.2465,0.2525,0.2584,0.2719,0.2679,0.2721,0.2854,0.2865,0.288,0.2892,0.2931,0.2947,0.2744,0.2744,0.2744,0,0.1931,0.1953,0.197,0.202,0.2079,0.2094,0.2151,0.2205,0.2264,0.2329,0.2323,0.251,0.2533,0.2701,0.2745,0.274,0.275,0.2764,0.2873,0.2886,0.2899,0.2935,0.2953,0.2746,0.2746,0.2745,0.2745,0,0.1978,0.1999,0.2031,0.2087,0.2149,0.2217,0.2295,0.2342,0.2391,0.2451,0.2621,0.2686,0.2793,0.2808,0.2831,0.2946,0.2922,0.285,0.2809,0.2917,0.295,0.2968,0.2748,0.2747,0.2747,0.2746,0,0,0.1976,0.2042,0.2056,0.2096,0.2208,0.2261,0.2373,0.2495,0.2567,0.2687,0.2813,0.2978,0.298,0.3055,0.3052,0.3115,0.3168,0.3041,0.304,0.3038,0.3218,0.3035,0.3037,0.3079,0.3083,0.3086,0.3195,0,0.2013,0.2091,0.2134,0.2231,0.2284,0.237,0.2478,0.2596,0.2691,0.2798,0.2959,0.3078,0.3085,0.3117,0.318,0.3169,0.3223,0.315,0.3158,0.3162,0.2947,0.3055,0.2806,0.2867,0.3213,0.3216,0.3218,0,0.204,0.2101,0.22,0.2302,0.2343,0.2426,0.2594,0.2692,0.2865,0.2946,0.3105,0.317,0.334,0.3276,0.3413,0.3355,0.3312,0.332,0.3319,0.3181,0.3014,0.2827,0.2887,0.3248,0.3246,0.3243,0.3241,0,0.2033,0.2132,0.2218,0.2278,0.2412,0.2503,0.2593,0.2755,0.2856,0.3037,0.3112,0.3301,0.3395,0.3435,0.345,0.3417,0.3554,0.3467,0.3301,0.3287,0.3107,0.307,0.3546,0.3546,0.3546,0.3545,0.3545,0,0.2058,0.2133,0.2229,0.2304,0.2434,0.2533,0.2684,0.2782,0.2933,0.3043,0.3186,0.3295,0.3433,0.3507,0.3494,0.3473,0.3571,0.3387,0.3316,0.31,0.3063,0.342,0.3404,0.3549,0.3548,0.3548,0.3547,0,0.206,0.2113,0.222,0.2375,0.2431,0.2546,0.2726,0.2794,0.2957,0.3086,0.3154,0.3334,0.3445,0.3541,0.3601,0.3509,0.3503,0.3441,0.3201,0.3099,0.3231,0.3215,0.3316,0.3311,0.3307,0.3303,0.33,0,0.2074,0.2123,0.2273,0.232,0.2413,0.2569,0.264,0.2807,0.286,0.3091,0.3125,0.3314,0.3361,0.3437,0.3366,0.3339,0.343,0.3033,0.2923,0.3295,0.3215,0.3206,0.3196,0.2701,0.2693,0.2687,0.2682,0,0.2123,0.2174,0.2247,0.2317,0.2402,0.2515,0.2631,0.2668,0.2827,0.2891,0.2983,0.3058,0.3177,0.305,0.3021,0.2957,0.3025,0.2896,0.3362,0.2763,0.2712,0.2634,0.2646,0.2625,0.2631,0.2635,0.2638,0.2641,0.215,0.2188,0.2223,0.2286,0.2376,0.2439,0.25,0.2538,0.258,0.2636,0.273,0.2732,0.2779,0.262,0.2524,0.2475,0.2675,0.253,0.2552,0.258,0.2454,0.2394,0.2228,0.2232,0.2234,0.2237,0.2239,0,0.2138,0.2155,0.2178,0.2233,0.2267,0.2385,0.2458,0.2419,0.2394,0.2378,0.2383,0.2123,0.2043,0.2154,0.1977,0.1908,0.1916,0.1836,0.1853,0.1909,0.1959,0.1804,0.1406,0.1403,0.1401,0.1398,0,0,0.2133,0.2084,0.2054,0.2062,0.2169,0.2194,0.2246,0.2187,0.214,0.1946,0.1882,0.1945,0.2042,0.1681,0.1623,0.1507,0.1698,0.1438,0.2108,0.2184,0.2232,0.2359,0.2182,0,0,0,0,0]},{"header":{"parameterUnit":"m.s-1","parameterCategory":2,"la1":30.2991,"la2":30.254,"lo1":-89.0895,"lo2":-89.0444,"dy":0.0017,"dx":0.0017,"nx":28,"ny":28,"refTime":"2024-07-24T09:00:00:Z","depth":"2","parameterNumber":3,"parameterNumberName":"V-component_of_CURRENTS"},"data":[0,0,0,0,0,0,0,0,0,0,0,0,0,0,0,0,0,0,0,0,0,0,0,0,0,0,0,0,0,0,0,0,0,0,0,0,0,0,0,0,0,0,0,0,0,0,0,0,0,0,0,0,0,0,0,0,0,0,-0.0111,-0.0111,0,-0.0141,-0.0142,-0.0142,-0.0171,-0.0171,-0.0172,-0.0172,-0.0203,-0.0203,-0.0203,0,0,0,0,0,0,0,0,0,0,0,0,0,-0.0032,-0.0033,-0.0111,-0.0111,-0.0112,-0.0141,-0.0142,-0.0142,-0.0171,-0.0171,-0.0172,-0.0172,-0.0202,-0.0203,-0.0203,0,0,0,0,0,0,0,0,0,0,0,0,0,-0.0064,-0.0034,-0.0111,-0.0131,-0.0133,-0.0141,-0.0142,-0.0142,-0.0171,-0.0171,-0.0172,-0.0173,-0.0202,-0.0203,-0.0203,-0.0193,0,0,-0.0205,-0.0205,0,0,0,0,0,0,0,0,-0.0062,-0.0067,-0.0127,-0.0129,-0.0132,-0.0154,-0.0125,-0.0159,-0.017,-0.0155,-0.0172,-0.0173,-0.0186,-0.0188,-0.0191,-0.0194,-0.0195,-0.0205,-0.0205,-0.0206,-0.0206,0,0,0,0,0,0,0,-0.006,-0.0065,-0.0122,-0.0128,-0.013,-0.0122,-0.0128,-0.0131,-0.0166,-0.0156,-0.0159,-0.0164,-0.0188,-0.019,-0.0192,-0.0196,-0.0205,-0.0206,-0.0206,-0.0206,-0.015,-0.0149,0,0,0,0,0,0,-0.006,-0.0063,-0.0121,-0.0123,-0.0099,-0.0123,-0.013,-0.0145,-0.0166,-0.017,-0.0163,-0.0165,-0.0189,-0.0191,-0.0193,-0.0172,-0.0206,-0.0206,-0.0207,-0.0152,-0.015,-0.0148,0,0,0,0,0,0,-0.0059,-0.0065,-0.012,-0.0094,-0.01,-0.0125,-0.0141,-0.0145,-0.0152,-0.0171,-0.0175,-0.0166,-0.019,-0.0192,-0.0208,-0.0174,-0.0206,-0.0207,-0.0154,-0.0151,-0.0149,-0.0136,0,0,0,0,0,0,-0.0056,-0.0065,-0.0073,-0.0094,-0.0102,-0.0121,-0.0141,-0.0146,-0.0154,-0.0157,-0.0174,-0.0178,-0.019,-0.0207,-0.0208,-0.0175,-0.0207,-0.0157,-0.0153,-0.015,-0.0139,-0.0133,-0.0128,0,0,0,0,0,-0.0053,-0.006,-0.0073,-0.008,-0.0114,-0.0121,-0.0124,-0.0142,-0.0153,-0.0151,-0.0174,-0.0177,-0.0184,-0.0208,-0.0209,-0.0175,-0.0158,-0.0154,-0.015,-0.0141,-0.0134,-0.0129,0,0,0,0,0,0,-0.0035,-0.0065,-0.0079,-0.0097,-0.0107,-0.0126,-0.0127,-0.0139,-0.0154,-0.0158,-0.018,-0.0185,-0.0176,-0.0176,-0.0201,-0.0143,-0.016,-0.0157,-0.0153,-0.0147,-0.0141,-0.0141,-0.0208,0,0,0,0,0,-0.0034,-0.0043,-0.007,-0.0081,-0.0087,-0.0106,-0.0111,-0.0121,-0.0139,-0.0146,-0.0161,-0.0163,-0.0156,-0.0157,-0.0153,-0.014,-0.0137,-0.0107,-0.0102,-0.0098,-0.0094,-0.0057,-0.0049,-0.0134,-0.0135,-0.0135,0,0,-0.003,-0.0046,-0.0052,-0.0076,-0.0087,-0.0097,-0.0111,-0.0114,-0.0125,-0.0146,-0.0162,-0.0153,-0.0149,-0.0132,-0.0124,-0.0133,-0.0074,-0.0092,-0.009,-0.0088,-0.0052,-0.0044,-0.0037,-0.0132,-0.0132,-0.0133,0,0,-0.0014,-0.0041,-0.0039,-0.0053,-0.0067,-0.008,-0.0081,-0.0099,-0.011,-0.0125,-0.0127,-0.0104,-0.0115,-0.0092,-0.0086,-0.0045,-0.005,-0.0029,-0.0007,0.003,0.0036,0.0042,0.0038,0.0044,-0.0025,-0.0025,-0.0025,0,-0.0009,-0.0021,-0.0037,-0.0043,-0.0058,-0.0075,-0.0081,-0.0094,-0.0113,-0.0111,-0.0129,-0.0087,-0.0092,-0.0042,-0.0035,-0.0033,-0.0032,-0.0039,0.0034,0.004,0.0046,0.0041,0.0046,-0.0024,-0.0024,-0.0024,-0.0024,0,0.0001,-0.001,-0.001,-0.0031,-0.0043,-0.005,-0.0076,-0.0073,-0.0089,-0.0098,-0.006,-0.005,-0.0022,-0.0,-0.0022,0.0044,0.0023,0.0031,0.001,0.0055,0.0047,0.0052,-0.0022,-0.0022,-0.0023,-0.0023,0,0,0.0009,-0.0001,-0.0005,-0.0002,-0.0042,-0.0041,-0.0057,-0.0063,-0.0045,-0.005,-0.002,0.0004,0.0025,0.0038,0.0059,0.0093,0.0119,0.0072,0.0073,0.0053,0.0167,0.0111,0.0111,0.0134,0.0136,0.0137,0.0137,0,0.0018,0.0023,0.0001,0.0002,0.0002,-0.0023,-0.0031,-0.0035,-0.0036,-0.001,0.0021,0.006,0.0034,0.0077,0.0096,0.0144,0.0138,0.0116,0.0141,0.0141,0.0073,0.0118,0.011,0.0106,0.0142,0.0143,0.0144,0,0.0029,0.0031,0.0032,0.0039,0.0034,0.0028,0.0039,0.0033,0.0053,0.0057,0.0096,0.0115,0.0181,0.0146,0.0211,0.0198,0.0158,0.0175,0.0175,0.0124,0.0096,0.0074,0.0115,0.0154,0.0153,0.0152,0.0151,0,0.0059,0.0057,0.0064,0.0054,0.0049,0.0055,0.0054,0.0062,0.0095,0.012,0.0178,0.0208,0.0287,0.0263,0.0269,0.0242,0.0326,0.0294,0.0193,0.0187,0.0186,0.0177,0.0283,0.0283,0.0283,0.0283,0.0283,0,0.0074,0.0078,0.0087,0.0086,0.0125,0.0094,0.0144,0.0147,0.0186,0.0272,0.0232,0.0349,0.0325,0.0366,0.0302,0.0285,0.0344,0.02,0.0195,0.0187,0.0179,0.023,0.0224,0.0283,0.0283,0.0283,0.0283,0,0.0096,0.0094,0.012,0.0129,0.0144,0.017,0.0219,0.0268,0.0289,0.0412,0.0438,0.0491,0.0556,0.0497,0.0497,0.037,0.0334,0.0282,0.0251,0.024,0.0145,0.014,0.0171,0.0169,0.0168,0.0166,0.0165,0,0.01,0.0116,0.0167,0.021,0.0214,0.0259,0.0304,0.032,0.0392,0.0539,0.0624,0.0701,0.0785,0.0723,0.0532,0.0377,0.036,0.0208,0.014,0.0148,0.0139,0.0136,0.0133,0.0139,0.0137,0.0137,0.0136,0,0.0118,0.0141,0.0184,0.0283,0.0342,0.0405,0.0476,0.0564,0.063,0.0786,0.099,0.1068,0.0947,0.0812,0.0524,0.0401,0.0231,0.0179,0.0252,0.0156,0.0115,0.0106,0.0106,0.0127,0.0128,0.0129,0.0129,0.013,0.0156,0.02,0.0284,0.0384,0.0453,0.0556,0.0661,0.0793,0.0991,0.1208,0.124,0.1331,0.1052,0.0709,0.0475,0.0181,0.0195,0.0062,0.0067,0.0073,0.0057,0.0014,0.0003,0.0003,0.0003,0.0003,0.0003,0,0.0219,0.0277,0.0375,0.0512,0.0621,0.0621,0.0785,0.0939,0.1242,0.1348,0.1518,0.1283,0.1062,0.0752,0.0301,0.0028,0.0013,-0.0052,-0.0011,-0.0001,0.0007,-0.0011,-0.0084,-0.0084,-0.0085,-0.0086,0,0,0.0262,0.0387,0.0447,0.0658,0.0731,0.0896,0.1009,0.1256,0.1377,0.1567,0.1561,0.1481,0.1093,0.0751,0.0406,0.0164,0.0138,0.0108,0.0199,0.0295,0.0307,0.0087,0.0072,0,0,0,0,0]}],[{"header":{"parameterUnit":"m.s-1","parameterCategory":2,"la1":30.2991,"la2":30.254,"lo1":-89.0895,"lo2":-89.0444,"dy":0.0017,"dx":0.0017,"nx":28,"ny":28,"refTime":"2024-07-24T09:00:00:Z","depth":"4","parameterNumber":2,"parameterNumberName":"U-component_of_CURRENTS"},"data":[0,0,0,0,0,0,0,0,0,0,0,0,0,0,0,0,0,0,0,0,0,0,0,0,0,0,0,0,0,0,0,0,0,0,0,0,0,0,0,0,0,0,0,0,0,0,0,0,0,0,0,0,0,0,0,0,0,0,0.0948,0.0948,0,0.0912,0.0912,0.0911,0.0921,0.0922,0.0924,0.0925,0.0907,0.0906,0.0904,0,0,0,0,0,0,0,0,0,0,0,0,0,0.0908,0.0909,0.0948,0.0948,0.0949,0.0913,0.0912,0.0911,0.0921,0.0922,0.0924,0.0925,0.0908,0.0906,0.0904,0,0,0,0,0,0,0,0,0,0,0,0,0,0.0899,0.0909,0.0948,0.0953,0.0954,0.0913,0.0912,0.091,0.0921,0.0922,0.0924,0.0926,0.0909,0.0906,0.0904,0.0852,0,0,0.0896,0.0895,0,0,0,0,0,0,0,0,0.09,0.09,0.0953,0.0953,0.0954,0.0928,0.0891,0.0893,0.092,0.0927,0.0925,0.0927,0.0918,0.0915,0.0896,0.0851,0.085,0.0896,0.0895,0.0894,0.0893,0,0,0,0,0,0,0,0.09,0.0901,0.0929,0.0953,0.0953,0.0917,0.0919,0.089,0.0909,0.0927,0.0929,0.0933,0.0918,0.0898,0.0896,0.085,0.0896,0.0894,0.0893,0.0892,0.0964,0.0967,0,0,0,0,0,0,0.092,0.0902,0.093,0.0928,0.0937,0.0917,0.0918,0.093,0.0909,0.0909,0.0932,0.0934,0.0902,0.0899,0.0896,0.0962,0.0894,0.0891,0.089,0.096,0.0965,0.0968,0,0,0,0,0,0,0.0919,0.0923,0.0931,0.0918,0.0917,0.0918,0.0929,0.0928,0.0955,0.0913,0.0913,0.0966,0.0903,0.0899,0.0891,0.0957,0.089,0.0888,0.0956,0.0962,0.0966,0.1013,0,0,0,0,0,0,0.0918,0.0923,0.0937,0.092,0.0919,0.0924,0.0928,0.0926,0.0955,0.0958,0.0941,0.0939,0.0904,0.0895,0.0889,0.0953,0.0886,0.0952,0.0959,0.0965,0.1007,0.1019,0.1029,0,0,0,0,0,0.0917,0.0928,0.0938,0.0942,0.0939,0.0925,0.092,0.0922,0.0956,0.0956,0.0948,0.0942,0.0935,0.0893,0.0885,0.0951,0.0949,0.0957,0.0964,0.1002,0.1017,0.1029,0,0,0,0,0,0,0.092,0.093,0.0941,0.0957,0.0952,0.0929,0.0934,0.0949,0.0943,0.0959,0.0936,0.093,0.0971,0.0952,0.0908,0.1002,0.0961,0.0968,0.0993,0.1006,0.1017,0.098,0.0884,0,0,0,0,0,0.0928,0.0939,0.094,0.0953,0.0959,0.0959,0.096,0.0964,0.0957,0.096,0.0952,0.0965,0.0988,0.0987,0.0991,0.0999,0.0999,0.1058,0.1069,0.1078,0.105,0.1119,0.1132,0.0993,0.0993,0.0993,0,0,0.0931,0.094,0.0946,0.0954,0.0955,0.0934,0.0964,0.0975,0.0962,0.0956,0.0951,0.0996,0.1004,0.1029,0.105,0.102,0.1124,0.1088,0.1095,0.1061,0.1128,0.1141,0.1153,0.0998,0.0997,0.0997,0,0,0.0898,0.0958,0.093,0.0932,0.094,0.0947,0.0966,0.0969,0.0982,0.0979,0.1008,0.1069,0.1073,0.1091,0.1104,0.1175,0.1189,0.1235,0.1236,0.1306,0.1316,0.1325,0.1354,0.1365,0.1229,0.1229,0.1229,0,0.0894,0.0879,0.092,0.0887,0.0899,0.096,0.0935,0.0941,0.0941,0.0964,0.0988,0.1069,0.1093,0.1133,0.1185,0.1195,0.1233,0.1176,0.1315,0.1324,0.1333,0.136,0.1371,0.1232,0.1232,0.1231,0.1231,0,0.0825,0.0821,0.0818,0.0805,0.0818,0.0827,0.085,0.089,0.0951,0.0959,0.1038,0.1071,0.1124,0.1187,0.1203,0.1306,0.1314,0.1327,0.1267,0.1349,0.1373,0.1385,0.1236,0.1235,0.1234,0.1234,0,0,0.0786,0.077,0.0769,0.0765,0.0795,0.0805,0.0824,0.086,0.0916,0.0942,0.0998,0.1076,0.1143,0.1165,0.123,0.1299,0.1422,0.1354,0.1357,0.1355,0.157,0.1416,0.1413,0.1482,0.1484,0.1486,0.1564,0,0.0721,0.0667,0.0675,0.0654,0.0647,0.073,0.0749,0.0799,0.0882,0.0952,0.1017,0.1099,0.1116,0.1208,0.1265,0.14,0.1454,0.1397,0.1512,0.1514,0.1346,0.1422,0.1493,0.1573,0.1575,0.1577,0.1578,0,0.0624,0.0627,0.0589,0.0624,0.0634,0.0637,0.0769,0.0786,0.0893,0.0967,0.1039,0.1111,0.1203,0.1243,0.139,0.1368,0.1467,0.1547,0.1552,0.1386,0.138,0.1477,0.1598,0.1597,0.1595,0.1594,0.1592,0,0.0581,0.0558,0.0554,0.0562,0.0608,0.0641,0.0691,0.08,0.0855,0.0995,0.1085,0.1155,0.1247,0.1346,0.1475,0.148,0.1642,0.1659,0.1583,0.1572,0.1662,0.1651,0.1764,0.1763,0.1763,0.1763,0.1763,0,0.0499,0.0499,0.0546,0.0545,0.0589,0.0627,0.07,0.0784,0.0902,0.0976,0.1089,0.1169,0.1301,0.1395,0.1488,0.1535,0.1634,0.1572,0.1583,0.1684,0.1675,0.167,0.1658,0.1766,0.1765,0.1765,0.1764,0,0.0417,0.0444,0.0448,0.0519,0.0551,0.0586,0.0685,0.0746,0.0885,0.0999,0.1053,0.1208,0.133,0.1413,0.1593,0.1547,0.1626,0.1628,0.17,0.1717,0.1508,0.1499,0.1538,0.1534,0.153,0.1526,0.1523,0,0.036,0.0353,0.0429,0.0456,0.0485,0.0552,0.0603,0.0727,0.0794,0.1008,0.1051,0.1218,0.1307,0.14,0.1491,0.1571,0.1578,0.1574,0.155,0.1478,0.1487,0.1483,0.1479,0.1517,0.1516,0.1515,0.1514,0,0.0276,0.0316,0.0344,0.0392,0.0441,0.0488,0.0568,0.0617,0.0774,0.0907,0.1059,0.1148,0.1261,0.1341,0.1398,0.1463,0.1543,0.1532,0.1541,0.152,0.1453,0.1465,0.1466,0.15,0.1502,0.1503,0.1504,0,0.0238,0.0244,0.0284,0.0331,0.0378,0.0412,0.0467,0.0565,0.0653,0.0899,0.0936,0.1126,0.1255,0.1287,0.1345,0.1368,0.1367,0.1327,0.1347,0.1363,0.1264,0.115,0.1109,0,0,0,0,0,0.0183,0.0196,0.0221,0.026,0.0295,0.0327,0.0439,0.0506,0.0667,0.0753,0.0853,0.0969,0.108,0.1157,0.1152,0.1232,0.1337,0.1213,0.1293,0.1423,0.1439,0.1334,0,0,0,0,0,0,0.0152,0.0173,0.0196,0.0187,0.0198,0.0231,0.0302,0.0418,0.0479,0.0662,0.0738,0.0869,0.0992,0.1075,0.1122,0.114,0.116,0.1313,0.1309,0.1414,0.1428,0.1441,0.1339,0,0,0,0,0]},{"header":{"parameterUnit":"m.s-1","parameterCategory":2,"la1":30.2991,"la2":30.254,"lo1":-89.0895,"lo2":-89.0444,"dy":0.0017,"dx":0.0017,"nx":28,"ny":28,"refTime":"2024-07-24T09:00:00:Z","depth":"4","parameterNumber":3,"parameterNumberName":"V-component_of_CURRENTS"},"data":[0,0,0,0,0,0,0,0,0,0,0,0,0,0,0,0,0,0,0,0,0,0,0,0,0,0,0,0,0,0,0,0,0,0,0,0,0,0,0,0,0,0,0,0,0,0,0,0,0,0,0,0,0,0,0,0,0,0,0.0015,0.0014,0,0.0016,0.0016,0.0016,0.001,0.001,0.0009,0.0009,0.0013,0.0014,0.0014,0,0,0,0,0,0,0,0,0,0,0,0,0,0.006,0.0059,0.0015,0.0014,0.0014,0.0016,0.0016,0.0016,0.001,0.001,0.0009,0.0009,0.0013,0.0014,0.0014,0,0,0,0,0,0,0,0,0,0,0,0,0,0.0051,0.0058,0.0015,0.001,0.0009,0.0016,0.0016,0.0016,0.001,0.001,0.0009,0.0009,0.0013,0.0013,0.0014,0.0031,0,0,0.0016,0.0017,0,0,0,0,0,0,0,0,0.0051,0.0049,0.001,0.001,0.0009,0.001,0.0033,0.0021,0.0011,0.0013,0.0009,0.0008,0.0011,0.0012,0.0017,0.0031,0.0032,0.0017,0.0017,0.0017,0.0018,0,0,0,0,0,0,0,0.0052,0.005,0.0018,0.001,0.0009,0.0025,0.0023,0.0031,0.0017,0.0012,0.0011,0.0007,0.0011,0.0017,0.0017,0.0032,0.0017,0.0017,0.0018,0.0018,0.0031,0.0031,0,0,0,0,0,0,0.0044,0.005,0.0018,0.0018,0.0026,0.0024,0.0022,0.0012,0.0017,0.0017,0.0008,0.0007,0.0016,0.0016,0.0017,0.0027,0.0017,0.0018,0.0018,0.0031,0.0031,0.003,0,0,0,0,0,0,0.0045,0.0041,0.0018,0.0032,0.003,0.0023,0.0013,0.0013,0.0014,0.0013,0.0013,0.0009,0.0015,0.0016,0.002,0.0027,0.0018,0.0019,0.0031,0.0031,0.0031,0.0053,0,0,0,0,0,0,0.0046,0.0041,0.0037,0.0031,0.0029,0.0029,0.0014,0.0013,0.0012,0.0011,0.0015,0.0014,0.0015,0.0019,0.002,0.0028,0.002,0.0031,0.0031,0.0031,0.0053,0.0054,0.0055,0,0,0,0,0,0.0048,0.0046,0.0037,0.0033,0.0021,0.003,0.0031,0.0026,0.0013,0.0023,0.0014,0.0014,0.0018,0.0019,0.0021,0.003,0.0031,0.0031,0.0031,0.0052,0.0054,0.0055,0,0,0,0,0,0,0.0061,0.0045,0.0035,0.0027,0.003,0.0028,0.0034,0.0027,0.0029,0.0025,0.0018,0.0018,0.0019,0.0021,0.0022,0.003,0.0023,0.0023,0.0039,0.004,0.0041,0.0074,0.002,0,0,0,0,0,0.0061,0.0059,0.0047,0.0044,0.0043,0.0038,0.004,0.0037,0.0035,0.0035,0.0034,0.0029,0.0022,0.0028,0.0025,0.0039,0.0024,0.0042,0.0044,0.0045,0.0072,0.0025,0.0025,0.003,0.003,0.003,0,0,0.0063,0.0057,0.0053,0.0048,0.0048,0.0068,0.0039,0.0045,0.0073,0.0036,0.0066,0.0033,0.0023,0.0031,0.0033,0.0035,0.0034,0.0044,0.0046,0.0073,0.0025,0.0025,0.0024,0.003,0.003,0.003,0,0,0.009,0.0062,0.0081,0.0088,0.0091,0.0088,0.0089,0.0087,0.0096,0.0116,0.0081,0.005,0.0068,0.0047,0.0042,0.0049,0.0035,0.0047,0.0092,0.0046,0.0045,0.0045,0.0022,0.002,0.0056,0.0056,0.0056,0,0.0096,0.0118,0.009,0.012,0.0134,0.0099,0.0135,0.0142,0.0145,0.0153,0.0134,0.0105,0.0079,0.0074,0.007,0.0054,0.0036,0.0087,0.0048,0.0047,0.0046,0.0023,0.002,0.0057,0.0057,0.0057,0.0057,0,0.0147,0.0169,0.0181,0.0206,0.0215,0.0237,0.0237,0.0245,0.0236,0.0236,0.0226,0.0175,0.0159,0.013,0.0108,0.0085,0.0077,0.0045,0.0046,0.0047,0.0023,0.0019,0.0059,0.0058,0.0058,0.0058,0,0,0.0159,0.0208,0.0217,0.025,0.0264,0.0277,0.0313,0.0335,0.035,0.0335,0.0348,0.03,0.0251,0.024,0.0181,0.0136,0.009,0.0098,0.0095,0.0082,0.001,-0.0002,-0.0008,0.0049,0.0049,0.0048,-0.0005,0,0.0216,0.0293,0.0301,0.0372,0.0408,0.0394,0.0435,0.0444,0.0431,0.043,0.0371,0.0353,0.0303,0.0269,0.0221,0.0106,0.0083,0.011,0.0008,0.0006,-0.0001,-0.0012,0.0047,-0.0008,-0.0009,-0.001,-0.001,0,0.0276,0.0321,0.0406,0.0464,0.0477,0.0513,0.0539,0.0571,0.0557,0.0545,0.0508,0.0451,0.038,0.0328,0.0192,0.0211,0.0138,0.0056,0.0051,0.0038,-0.0012,-0.001,-0.0018,-0.0017,-0.0017,-0.0016,-0.0016,0,0.0312,0.0393,0.0465,0.0486,0.0544,0.058,0.0603,0.0607,0.0636,0.0604,0.0592,0.0513,0.0453,0.035,0.0195,0.019,0.0041,0.0005,-0.0056,-0.0058,-0.004,-0.0039,-0.0053,-0.0053,-0.0053,-0.0053,-0.0053,0,0.0369,0.0431,0.0491,0.0533,0.0611,0.0631,0.0694,0.0699,0.0706,0.0721,0.0653,0.0617,0.0452,0.0344,0.0222,0.0071,0.0067,-0.0036,-0.0073,-0.003,-0.0027,-0.0044,-0.0042,-0.0055,-0.0055,-0.0054,-0.0054,0,0.0411,0.0453,0.0541,0.0612,0.0638,0.0693,0.0761,0.0794,0.0793,0.08,0.0792,0.0687,0.0532,0.0383,0.0182,0.0098,-0.0048,-0.0086,-0.0007,-0.0042,-0.0115,-0.0111,-0.0161,-0.0162,-0.0163,-0.0164,-0.0164,0,0.0442,0.0495,0.059,0.0636,0.0678,0.0755,0.0807,0.084,0.0863,0.083,0.0826,0.0698,0.0607,0.0338,0.0168,-0.0038,-0.0066,-0.0117,-0.0125,-0.0095,-0.0127,-0.0122,-0.0117,-0.0165,-0.0165,-0.0166,-0.0166,0,0.0498,0.0535,0.0595,0.0684,0.0754,0.0832,0.0896,0.0914,0.0932,0.0932,0.0843,0.0706,0.0537,0.0324,0.0172,0.002,-0.0085,-0.0126,-0.0125,-0.0133,-0.01,-0.013,-0.0125,-0.0168,-0.0168,-0.0168,-0.0168,0,0.0534,0.0574,0.0644,0.0721,0.0806,0.0871,0.0907,0.0924,0.095,0.0907,0.0865,0.0692,0.0587,0.0354,0.0203,0.0057,0.0017,-0.0021,-0.0027,-0.0026,0.002,0.0082,0.0048,0,0,0,0,0,0.0559,0.0598,0.0669,0.0753,0.0834,0.0889,0.0948,0.0971,0.0974,0.0922,0.09,0.0743,0.0498,0.0383,0.0236,0.0181,-0.0009,0.0004,-0.0056,-0.0183,-0.018,-0.0151,0,0,0,0,0,0,0.0577,0.0644,0.0667,0.0761,0.0822,0.0919,0.096,0.0966,0.0932,0.0905,0.0773,0.0719,0.0478,0.0587,0.0238,0.0192,0.0135,-0.0105,-0.0108,-0.0184,-0.0182,-0.0179,-0.0148,0,0,0,0,0]}]]